Time,TemperatureF,DewpointF,PressureIn,WindDirection,WindDirectionDegrees,WindSpeedMPH,WindSpeedGustMPH,Humidity,HourlyPrecipIn,Conditions,Clouds,dailyrainin,SoftwareType,DateUTC
2013-05-13 00:00:00,37.8,16.2,30.11,NNW,340,0.0,0.0,41,0.00,,,0.00,VWS V15.00,2013-05-13 05:00:00,
2013-05-13 00:01:00,34.1,17.9,30.11,NNW,340,0.0,0.0,51,0.00,,CLR,0.00,VWS V14.01,2013-05-13 05:01:00,
2013-05-13 00:06:00,34.0,18.7,30.11,NNW,340,0.0,0.0,53,0.00,,CLR,0.00,VWS V14.01,2013-05-13 05:06:00,
2013-05-13 00:11:00,33.7,17.5,30.11,NNW,340,0.0,0.0,51,0.00,,CLR,0.00,VWS V14.01,2013-05-13 05:11:00,
2013-05-13 00:15:00,36.3,17.0,30.11,NNW,340,0.0,0.0,45,0.00,,,0.00,VWS V15.00,2013-05-13 05:15:00,
2013-05-13 00:16:00,33.4,16.3,30.11,NNW,340,0.0,0.0,49,0.00,,CLR,0.00,VWS V14.01,2013-05-13 05:16:00,
2013-05-13 00:21:00,33.2,18.4,30.11,NNW,340,0.0,0.0,54,0.00,,CLR,0.00,VWS V14.01,2013-05-13 05:21:00,
2013-05-13 00:26:00,32.9,19.4,30.11,NNW,340,0.0,0.0,57,0.00,,CLR,0.00,VWS V14.01,2013-05-13 05:26:00,
2013-05-13 00:30:00,35.3,17.1,30.11,NNW,340,0.0,0.0,47,0.00,,,0.00,VWS V15.00,2013-05-13 05:30:00,
2013-05-13 00:31:00,32.7,19.6,30.11,NNW,340,0.0,0.0,58,0.00,,CLR,0.00,VWS V14.01,2013-05-13 05:31:00,
2013-05-13 00:36:00,32.8,21.2,30.11,NNW,340,0.0,0.0,62,0.00,,CLR,0.00,VWS V14.01,2013-05-13 05:36:00,
2013-05-13 00:41:00,32.7,20.8,30.11,NNW,340,0.0,0.0,61,0.00,,CLR,0.00,VWS V14.01,2013-05-13 05:41:00,
2013-05-13 00:45:00,34.7,17.0,30.11,NNW,340,0.0,0.0,48,0.00,,,0.00,VWS V15.00,2013-05-13 05:45:00,
2013-05-13 00:47:00,32.5,20.2,30.11,NNW,340,0.0,0.0,60,0.00,,CLR,0.00,VWS V14.01,2013-05-13 05:47:00,
2013-05-13 00:52:00,32.2,18.3,30.11,NNW,340,0.0,0.0,56,0.00,,CLR,0.00,VWS V14.01,2013-05-13 05:52:00,
2013-05-13 00:57:00,32.1,18.2,30.11,NNW,340,0.0,0.0,56,0.00,,CLR,0.00,VWS V14.01,2013-05-13 05:57:00,
2013-05-13 01:00:00,34.1,17.9,30.11,NNW,340,0.0,0.0,51,0.00,,,0.00,VWS V15.00,2013-05-13 06:00:00,
2013-05-13 01:02:00,31.9,18.0,30.11,NNW,340,0.0,0.0,56,0.00,,CLR,0.00,VWS V14.01,2013-05-13 06:02:00,
2013-05-13 01:07:00,31.6,17.7,30.11,NNW,340,0.0,0.0,56,0.00,,CLR,0.00,VWS V14.01,2013-05-13 06:07:00,
2013-05-13 01:12:00,31.5,18.0,30.11,NNW,340,3.0,4.0,57,0.00,,CLR,0.00,VWS V14.01,2013-05-13 06:12:00,
2013-05-13 01:15:00,33.5,16.9,30.11,NNW,340,0.0,0.0,50,0.00,,,0.00,VWS V15.00,2013-05-13 06:15:00,
2013-05-13 01:17:00,31.0,18.0,30.11,NNW,340,0.0,2.0,58,0.00,,CLR,0.00,VWS V14.01,2013-05-13 06:17:00,
2013-05-13 01:22:00,30.7,18.9,30.11,NNW,340,0.0,2.0,61,0.00,,CLR,0.00,VWS V14.01,2013-05-13 06:22:00,
2013-05-13 01:27:00,30.4,19.0,30.11,NNW,340,2.0,2.0,62,0.00,,CLR,0.00,VWS V14.01,2013-05-13 06:27:00,
2013-05-13 01:30:00,32.7,19.6,30.11,NNW,340,0.0,0.0,58,0.00,,,0.00,VWS V15.00,2013-05-13 06:30:00,
2013-05-13 01:32:00,30.3,18.5,30.11,NNW,340,3.0,3.0,61,0.00,,CLR,0.00,VWS V14.01,2013-05-13 06:32:00,
2013-05-13 01:37:00,30.0,18.6,30.11,NNW,340,4.0,5.0,62,0.00,,CLR,0.00,VWS V14.01,2013-05-13 06:37:00,
2013-05-13 01:42:00,29.8,17.2,30.11,NNW,341,4.0,6.0,59,0.00,,SCT110,0.00,VWS V14.01,2013-05-13 06:42:00,
2013-05-13 01:45:00,32.7,19.6,30.11,NNW,340,0.0,0.0,58,0.00,,,0.00,VWS V15.00,2013-05-13 06:45:00,
2013-05-13 01:47:00,29.7,17.9,30.11,NNW,343,2.0,5.0,61,0.00,,SCT110,0.00,VWS V14.01,2013-05-13 06:47:00,
2013-05-13 01:52:00,29.5,18.1,30.11,NNW,343,3.0,5.0,62,0.00,,SCT110,0.00,VWS V14.01,2013-05-13 06:52:00,
2013-05-13 01:57:00,29.5,19.2,30.11,NE,49,6.0,6.0,65,0.00,,SCT110,0.00,VWS V14.01,2013-05-13 06:57:00,
2013-05-13 02:00:00,32.1,18.6,30.11,NNW,340,0.0,0.0,57,0.00,,,0.00,VWS V15.00,2013-05-13 07:00:00,
2013-05-13 02:02:00,29.4,18.7,30.11,East,96,5.0,9.0,64,0.00,,SCT110,0.00,VWS V14.01,2013-05-13 07:02:00,
2013-05-13 02:07:00,29.3,18.6,30.11,East,100,8.0,10.0,64,0.00,,SCT110,0.00,VWS V14.01,2013-05-13 07:07:00,
2013-05-13 02:12:00,29.0,18.4,30.11,ESE,104,5.0,10.0,64,0.00,,SCT110,0.00,VWS V14.01,2013-05-13 07:12:00,
2013-05-13 02:15:00,31.2,18.2,30.11,NNW,340,1.0,4.0,58,0.00,,,0.00,VWS V15.00,2013-05-13 07:15:00,
2013-05-13 02:17:00,28.7,18.4,30.10,ESE,106,5.0,7.0,65,0.00,,SCT110,0.00,VWS V14.01,2013-05-13 07:17:00,
2013-05-13 02:22:00,28.5,18.6,30.10,ESE,105,5.0,9.0,66,0.00,,SCT110,0.00,VWS V14.01,2013-05-13 07:22:00,
2013-05-13 02:27:00,28.4,18.5,30.10,ESE,106,6.0,10.0,66,0.00,,SCT110,0.00,VWS V14.01,2013-05-13 07:27:00,
2013-05-13 02:30:00,30.3,18.5,30.11,NNW,340,2.0,2.0,61,0.00,,,0.00,VWS V15.00,2013-05-13 07:30:00,
2013-05-13 02:32:00,28.2,19.4,30.10,East,101,4.0,10.0,69,0.00,,SCT110,0.00,VWS V14.01,2013-05-13 07:32:00,
2013-05-13 02:37:00,28.1,19.6,30.10,ESE,108,8.0,10.0,70,0.00,,SCT110,0.00,VWS V14.01,2013-05-13 07:37:00,
2013-05-13 02:42:00,28.1,19.9,30.10,ESE,117,9.0,11.0,71,0.00,,CLR,0.00,VWS V14.01,2013-05-13 07:42:00,
2013-05-13 02:45:00,29.7,17.5,30.11,NNW,343,4.0,6.0,60,0.00,,,0.00,VWS V15.00,2013-05-13 07:45:00,
2013-05-13 02:47:00,27.8,19.6,30.10,ESE,111,10.0,13.0,71,0.00,,CLR,0.00,VWS V14.01,2013-05-13 07:47:00,
2013-05-13 02:53:00,30.9,20.9,30.10,SE,128,10.0,17.0,66,0.00,,CLR,0.00,VWS V14.01,2013-05-13 07:53:00,
2013-05-13 02:58:00,34.7,21.0,30.10,ESE,120,6.0,17.0,57,0.00,,CLR,0.00,VWS V14.01,2013-05-13 07:58:00,
2013-05-13 03:00:00,29.4,18.4,30.11,East,94,7.0,9.0,63,0.00,,,0.00,VWS V15.00,2013-05-13 08:00:00,
2013-05-13 03:03:00,36.0,20.5,30.09,SE,132,15.0,15.0,53,0.00,,CLR,0.00,VWS V14.01,2013-05-13 08:03:00,
2013-05-13 03:08:00,36.9,20.9,30.09,ESE,120,7.0,15.0,52,0.00,,CLR,0.00,VWS V14.01,2013-05-13 08:08:00,
2013-05-13 03:13:00,37.5,20.6,30.09,SE,140,11.0,15.0,50,0.00,,CLR,0.00,VWS V14.01,2013-05-13 08:13:00,
2013-05-13 03:15:00,28.8,18.5,30.10,ESE,106,6.0,10.0,65,0.00,,,0.00,VWS V15.00,2013-05-13 08:15:00,
2013-05-13 03:18:00,37.8,20.8,30.08,SE,130,12.0,15.0,50,0.00,,CLR,0.00,VWS V14.01,2013-05-13 08:18:00,
2013-05-13 03:23:00,37.9,20.5,30.08,SE,136,15.0,19.0,49,0.00,,CLR,0.00,VWS V14.01,2013-05-13 08:23:00,
2013-05-13 03:28:00,38.2,20.2,30.08,SE,125,14.0,20.0,48,0.00,,CLR,0.00,VWS V14.01,2013-05-13 08:28:00,
2013-05-13 03:30:00,28.4,18.9,30.10,ESE,106,6.0,10.0,67,0.00,,,0.00,VWS V15.00,2013-05-13 08:30:00,
2013-05-13 03:33:00,38.0,20.1,30.08,SE,125,10.0,16.0,48,0.00,,CLR,0.00,VWS V14.01,2013-05-13 08:33:00,
2013-05-13 03:38:00,38.0,20.1,30.08,SE,127,9.0,16.0,48,0.00,,CLR,0.00,VWS V14.01,2013-05-13 08:38:00,
2013-05-13 03:43:00,37.9,20.0,30.08,SE,131,12.0,19.0,48,0.00,,CLR,0.00,VWS V14.01,2013-05-13 08:43:00,
2013-05-13 03:45:00,27.9,19.7,30.10,SE,125,9.0,13.0,71,0.00,,,0.00,VWS V15.00,2013-05-13 08:45:00,
2013-05-13 03:48:00,37.9,20.0,30.08,SE,130,14.0,17.0,48,0.00,,CLR,0.00,VWS V14.01,2013-05-13 08:48:00,
2013-05-13 03:53:00,38.2,20.2,30.08,SE,127,15.0,19.0,48,0.00,,CLR,0.00,VWS V14.01,2013-05-13 08:53:00,
2013-05-13 03:58:00,38.0,20.1,30.08,ESE,119,15.0,19.0,48,0.00,,CLR,0.00,VWS V14.01,2013-05-13 08:58:00,
2013-05-13 04:00:00,35.3,20.8,30.09,ESE,121,9.0,17.0,55,0.00,,,0.00,VWS V15.00,2013-05-13 09:00:00,
2013-05-13 04:03:00,38.2,19.8,30.08,SE,125,14.0,19.0,47,0.00,,CLR,0.00,VWS V14.01,2013-05-13 09:03:00,
2013-05-13 04:08:00,38.2,19.8,30.08,SE,125,14.0,19.0,47,0.00,,CLR,0.00,VWS V14.01,2013-05-13 09:08:00,
2013-05-13 04:13:00,38.0,19.6,30.08,SE,137,8.0,19.0,47,0.00,,CLR,0.00,VWS V14.01,2013-05-13 09:13:00,
2013-05-13 04:15:00,37.5,21.0,30.08,SE,132,13.0,16.0,51,0.00,,,0.00,VWS V15.00,2013-05-13 09:15:00,
2013-05-13 04:18:00,38.0,19.1,30.08,SE,132,17.0,17.0,46,0.00,,CLR,0.00,VWS V14.01,2013-05-13 09:18:00,
2013-05-13 04:23:00,38.2,19.3,30.08,SE,125,13.0,19.0,46,0.00,,CLR,0.00,VWS V14.01,2013-05-13 09:23:00,
2013-05-13 04:28:00,38.3,18.8,30.08,SE,137,18.0,20.0,45,0.00,,CLR,0.00,VWS V14.01,2013-05-13 09:28:00,
2013-05-13 04:30:00,38.2,20.2,30.08,SE,133,11.0,20.0,48,0.00,,,0.00,VWS V15.00,2013-05-13 09:30:00,
2013-05-13 04:33:00,38.3,18.8,30.07,SE,139,15.0,20.0,45,0.00,,CLR,0.00,VWS V14.01,2013-05-13 09:33:00,
2013-05-13 04:38:00,38.2,19.3,30.07,SE,127,11.0,21.0,46,0.00,,CLR,0.00,VWS V14.01,2013-05-13 09:38:00,
2013-05-13 04:43:00,38.2,18.8,30.07,SE,125,16.0,24.0,45,0.00,,SCT110,0.00,VWS V14.01,2013-05-13 09:43:00,
2013-05-13 04:45:00,37.9,20.5,30.08,ESE,121,13.0,19.0,49,0.00,,,0.00,VWS V15.00,2013-05-13 09:45:00,
2013-05-13 04:48:00,38.2,18.8,30.08,ESE,120,11.0,18.0,45,0.00,,SCT110,0.00,VWS V14.01,2013-05-13 09:48:00,
2013-05-13 04:53:00,38.3,18.8,30.08,SE,130,19.0,20.0,45,0.00,,SCT110,0.00,VWS V14.01,2013-05-13 09:53:00,
2013-05-13 04:58:00,38.5,19.0,30.08,SE,127,16.0,21.0,45,0.00,,SCT110,0.00,VWS V14.01,2013-05-13 09:58:00,
2013-05-13 05:00:00,38.0,19.6,30.08,ESE,123,17.0,22.0,47,0.00,,,0.00,VWS V15.00,2013-05-13 10:00:00,
2013-05-13 05:03:00,38.5,19.0,30.08,ESE,117,12.0,23.0,45,0.00,,CLR,0.00,VWS V14.01,2013-05-13 10:03:00,
2013-05-13 05:08:00,38.5,19.0,30.08,SE,125,11.0,23.0,45,0.00,,CLR,0.00,VWS V14.01,2013-05-13 10:08:00,
2013-05-13 05:13:00,38.5,19.0,30.08,ESE,123,13.0,23.0,45,0.00,,CLR,0.00,VWS V14.01,2013-05-13 10:13:00,
2013-05-13 05:15:00,38.0,19.6,30.08,SE,130,14.0,19.0,47,0.00,,,0.00,VWS V15.00,2013-05-13 10:15:00,
2013-05-13 05:18:00,38.3,18.8,30.08,ESE,118,16.0,20.0,45,0.00,,CLR,0.00,VWS V14.01,2013-05-13 10:18:00,
2013-05-13 05:23:00,38.3,19.4,30.08,ESE,123,16.0,21.0,46,0.00,,CLR,0.00,VWS V14.01,2013-05-13 10:23:00,
2013-05-13 05:28:00,38.2,18.8,30.08,SE,126,16.0,21.0,45,0.00,,CLR,0.00,VWS V14.01,2013-05-13 10:28:00,
2013-05-13 05:30:00,38.3,19.4,30.07,SE,124,15.0,20.0,46,0.00,,,0.00,VWS V15.00,2013-05-13 10:30:00,
2013-05-13 05:33:00,37.9,19.0,30.08,SE,134,17.0,17.0,46,0.00,,CLR,0.00,VWS V14.01,2013-05-13 10:33:00,
2013-05-13 05:39:00,38.0,21.0,30.08,SE,137,7.0,18.0,50,0.00,,CLR,0.00,VWS V14.01,2013-05-13 10:39:00,
2013-05-13 05:44:00,38.0,19.1,30.08,SE,135,12.0,19.0,46,0.00,,CLR,0.00,VWS V14.01,2013-05-13 10:44:00,
2013-05-13 05:45:00,38.2,18.8,30.08,ESE,120,10.0,24.0,45,0.00,,,0.00,VWS V15.00,2013-05-13 10:45:00,
2013-05-13 05:49:00,38.2,18.8,30.08,SE,130,11.0,18.0,45,0.00,,CLR,0.00,VWS V14.01,2013-05-13 10:49:00,
2013-05-13 05:54:00,38.2,19.3,30.08,SE,138,12.0,19.0,46,0.00,,CLR,0.00,VWS V14.01,2013-05-13 10:54:00,
2013-05-13 05:59:00,38.2,19.8,30.08,SE,135,14.0,19.0,47,0.00,,CLR,0.00,VWS V14.01,2013-05-13 10:59:00,
2013-05-13 06:00:00,38.5,19.0,30.08,SE,127,12.0,21.0,45,0.00,,,0.00,VWS V15.00,2013-05-13 11:00:00,
2013-05-13 06:04:00,38.2,19.8,30.08,SE,138,7.0,13.0,47,0.00,,CLR,0.00,VWS V14.01,2013-05-13 11:04:00,
2013-05-13 06:09:00,38.3,19.9,30.08,SE,137,10.0,15.0,47,0.00,,CLR,0.00,VWS V14.01,2013-05-13 11:09:00,
2013-05-13 06:14:00,38.6,20.1,30.09,SSE,150,6.0,15.0,47,0.00,,CLR,0.00,VWS V14.01,2013-05-13 11:14:00,
2013-05-13 06:15:00,38.3,18.8,30.08,SE,124,15.0,23.0,45,0.00,,,0.00,VWS V15.00,2013-05-13 11:15:00,
2013-05-13 06:19:00,38.8,19.8,30.09,SE,145,10.0,13.0,46,0.00,,CLR,0.00,VWS V14.01,2013-05-13 11:19:00,
2013-05-13 06:24:00,39.1,20.1,30.09,SE,146,5.0,13.0,46,0.00,,CLR,0.00,VWS V14.01,2013-05-13 11:24:00,
2013-05-13 06:29:00,39.2,20.2,30.09,SE,145,8.0,13.0,46,0.00,,CLR,0.00,VWS V14.01,2013-05-13 11:29:00,
2013-05-13 06:30:00,38.2,18.8,30.08,SE,127,9.0,21.0,45,0.00,,,0.00,VWS V15.00,2013-05-13 11:30:00,
2013-05-13 06:34:00,39.3,20.3,30.09,SE,145,6.0,7.0,46,0.00,,CLR,0.00,VWS V14.01,2013-05-13 11:34:00,
2013-05-13 06:39:00,39.6,21.0,30.09,SE,137,5.0,7.0,47,0.00,,CLR,0.00,VWS V14.01,2013-05-13 11:39:00,
2013-05-13 06:44:00,39.8,20.2,30.09,SE,139,6.0,11.0,45,0.00,,CLR,0.00,VWS V14.01,2013-05-13 11:44:00,
2013-05-13 06:45:00,38.2,18.8,30.08,SE,125,17.0,19.0,45,0.00,,,0.00,VWS V15.00,2013-05-13 11:45:00,
2013-05-13 06:49:00,40.1,20.5,30.09,SE,139,3.0,9.0,45,0.00,,CLR,0.00,VWS V14.01,2013-05-13 11:49:00,
2013-05-13 06:54:00,40.5,21.4,30.09,SE,139,2.0,9.0,46,0.00,,CLR,0.00,VWS V14.01,2013-05-13 11:54:00,
2013-05-13 06:59:00,40.8,20.6,30.09,SE,139,6.0,9.0,44,0.00,,CLR,0.00,VWS V14.01,2013-05-13 11:59:00,
2013-05-13 07:00:00,38.2,19.8,30.08,SE,139,12.0,19.0,47,0.00,,,0.00,VWS V15.00,2013-05-13 12:00:00,
2013-05-13 07:04:00,41.3,21.6,30.09,SE,140,1.0,8.0,45,0.00,,CLR,0.00,VWS V14.01,2013-05-13 12:04:00,
2013-05-13 07:09:00,41.8,21.0,30.09,SE,144,2.0,14.0,43,0.00,,CLR,0.00,VWS V14.01,2013-05-13 12:09:00,
2013-05-13 07:14:00,42.2,20.8,30.09,SE,144,3.0,14.0,42,0.00,,CLR,0.00,VWS V14.01,2013-05-13 12:14:00,
2013-05-13 07:15:00,38.6,20.1,30.09,SSE,150,5.0,15.0,47,0.00,,,0.00,VWS V15.00,2013-05-13 12:15:00,
2013-05-13 07:19:00,42.6,21.1,30.09,SE,143,6.0,11.0,42,0.00,,CLR,0.00,VWS V14.01,2013-05-13 12:19:00,
2013-05-13 07:24:00,43.1,21.0,30.09,SSE,150,7.0,13.0,41,0.00,,CLR,0.00,VWS V14.01,2013-05-13 12:24:00,
2013-05-13 07:29:00,43.5,20.8,30.09,SSE,151,11.0,13.0,40,0.00,,CLR,0.00,VWS V14.01,2013-05-13 12:29:00,
2013-05-13 07:30:00,39.2,20.2,30.09,SE,145,6.0,13.0,46,0.00,,,0.00,VWS V15.00,2013-05-13 12:30:00,
2013-05-13 07:34:00,44.2,20.8,30.09,SE,144,9.0,13.0,39,0.00,,CLR,0.00,VWS V14.01,2013-05-13 12:34:00,
2013-05-13 07:39:00,44.6,20.6,30.09,SSE,151,11.0,16.0,38,0.00,,CLR,0.00,VWS V14.01,2013-05-13 12:39:00,
2013-05-13 07:44:00,44.9,21.5,30.09,SSE,153,12.0,16.0,39,0.00,,CLR,0.00,VWS V14.01,2013-05-13 12:44:00,
2013-05-13 07:45:00,39.8,20.2,30.09,SE,139,5.0,11.0,45,0.00,,,0.00,VWS V15.00,2013-05-13 12:45:00,
2013-05-13 07:49:00,45.2,21.1,30.09,SSE,153,12.0,17.0,38,0.00,,CLR,0.00,VWS V14.01,2013-05-13 12:49:00,
2013-05-13 07:54:00,45.7,21.6,30.09,SE,145,14.0,17.0,38,0.00,,CLR,0.00,VWS V14.01,2013-05-13 12:54:00,
2013-05-13 07:59:00,46.0,21.8,30.09,SSE,153,12.0,18.0,38,0.00,,CLR,0.00,VWS V14.01,2013-05-13 12:59:00,
2013-05-13 08:00:00,40.9,20.7,30.09,SE,139,5.0,9.0,44,0.00,,,0.00,VWS V15.00,2013-05-13 13:00:00,
2013-05-13 08:04:00,46.4,22.2,30.09,SSE,156,7.0,13.0,38,0.00,,CLR,0.00,VWS V14.01,2013-05-13 13:04:00,
2013-05-13 08:09:00,46.8,21.9,30.09,SSE,158,12.0,14.0,37,0.00,,CLR,0.00,VWS V14.01,2013-05-13 13:09:00,
2013-05-13 08:14:00,46.8,21.9,30.09,SE,145,11.0,15.0,37,0.00,,CLR,0.00,VWS V14.01,2013-05-13 13:14:00,
2013-05-13 08:15:00,42.2,20.8,30.09,SE,144,3.0,14.0,42,0.00,,,0.00,VWS V15.00,2013-05-13 13:15:00,
2013-05-13 08:19:00,46.4,22.2,30.09,SSE,153,12.0,17.0,38,0.00,,CLR,0.00,VWS V14.01,2013-05-13 13:19:00,
2013-05-13 08:24:00,46.7,23.1,30.09,SSE,153,9.0,17.0,39,0.00,,CLR,0.00,VWS V14.01,2013-05-13 13:24:00,
2013-05-13 08:29:00,47.6,23.3,30.09,SSE,165,10.0,10.0,38,0.00,,CLR,0.00,VWS V14.01,2013-05-13 13:29:00,
2013-05-13 08:30:00,43.5,20.8,30.09,SE,146,9.0,13.0,40,0.00,,,0.00,VWS V15.00,2013-05-13 13:30:00,
2013-05-13 08:35:00,47.7,22.7,30.09,SSE,161,12.0,15.0,37,0.00,,CLR,0.00,VWS V14.01,2013-05-13 13:35:00,
2013-05-13 08:40:00,47.6,22.6,30.09,SSE,147,14.0,16.0,37,0.00,,CLR,0.00,VWS V14.01,2013-05-13 13:40:00,
2013-05-13 08:45:00,47.7,22.7,30.09,SE,141,10.0,10.0,37,0.00,,CLR,0.00,VWS V14.01,2013-05-13 13:45:00,
2013-05-13 08:50:00,48.5,23.4,30.09,SSE,149,15.0,15.0,37,0.00,,CLR,0.00,VWS V14.01,2013-05-13 13:50:00,
2013-05-13 08:55:00,48.8,23.0,30.09,SSE,149,13.0,15.0,36,0.00,,CLR,0.00,VWS V14.01,2013-05-13 13:55:00,
2013-05-13 09:00:00,49.6,22.4,30.08,SSE,157,10.0,12.0,34,0.00,,CLR,0.00,VWS V14.01,2013-05-13 14:00:00,
2013-05-13 09:05:00,50.7,22.7,30.08,SSE,155,7.0,13.0,33,0.00,,CLR,0.00,VWS V14.01,2013-05-13 14:05:00,
2013-05-13 09:10:00,51.0,22.9,30.08,SE,143,9.0,16.0,33,0.00,,CLR,0.00,VWS V14.01,2013-05-13 14:10:00,
2013-05-13 09:15:00,51.7,22.1,30.08,SSE,153,12.0,14.0,31,0.00,,CLR,0.00,VWS V14.01,2013-05-13 14:15:00,
2013-05-13 09:20:00,52.0,22.3,30.08,SSE,155,14.0,14.0,31,0.00,,CLR,0.00,VWS V14.01,2013-05-13 14:20:00,
2013-05-13 09:25:00,52.5,22.8,30.08,SSE,150,12.0,15.0,31,0.00,,CLR,0.00,VWS V14.01,2013-05-13 14:25:00,
2013-05-13 09:30:00,53.1,22.5,30.07,SSE,168,10.0,13.0,30,0.00,,CLR,0.00,VWS V14.01,2013-05-13 14:30:00,
2013-05-13 09:35:00,53.3,21.9,30.07,SE,144,12.0,13.0,29,0.00,,CLR,0.00,VWS V14.01,2013-05-13 14:35:00,
2013-05-13 09:40:00,54.2,22.6,30.07,SSE,161,11.0,17.0,29,0.00,,CLR,0.00,VWS V14.01,2013-05-13 14:40:00,
2013-05-13 09:45:00,54.8,22.3,30.05,SSE,164,13.0,13.0,28,0.00,,CLR,0.00,VWS V14.01,2013-05-13 14:45:00,
2013-05-13 09:50:00,55.6,22.2,30.05,SSE,150,12.0,17.0,27,0.00,,CLR,0.00,VWS V14.01,2013-05-13 14:50:00,
2013-05-13 09:55:00,55.6,22.2,30.05,South,186,12.0,19.0,27,0.00,,CLR,0.00,VWS V14.01,2013-05-13 14:55:00,
2013-05-13 10:00:00,56.0,22.5,30.05,South,170,11.0,15.0,27,0.00,,CLR,0.00,VWS V14.01,2013-05-13 15:00:00,
2013-05-13 10:05:00,56.0,23.4,30.05,SSE,165,14.0,18.0,28,0.00,,CLR,0.00,VWS V14.01,2013-05-13 15:05:00,
2013-05-13 10:10:00,56.2,23.5,30.05,SSE,156,12.0,18.0,28,0.00,,SCT110,0.00,VWS V14.01,2013-05-13 15:10:00,
2013-05-13 10:15:00,57.3,23.6,30.04,SE,137,18.0,18.0,27,0.00,,SCT110,0.00,VWS V14.01,2013-05-13 15:15:00,
2013-05-13 10:20:00,56.6,23.9,30.04,SSE,162,15.0,21.0,28,0.00,,SCT110,0.00,VWS V14.01,2013-05-13 15:20:00,
2013-05-13 10:25:00,57.0,23.4,30.04,SSE,162,12.0,21.0,27,0.00,,SCT110,0.00,VWS V14.01,2013-05-13 15:25:00,
2013-05-13 10:30:00,57.5,23.8,30.03,South,177,12.0,14.0,27,0.00,,SCT110,0.00,VWS V14.01,2013-05-13 15:30:00,
2013-05-13 10:35:00,58.1,23.4,30.03,SSE,148,17.0,20.0,26,0.00,,CLR,0.00,VWS V14.01,2013-05-13 15:35:00,
2013-05-13 10:40:00,57.8,24.9,30.03,SSE,149,18.0,20.0,28,0.00,,CLR,0.00,VWS V14.01,2013-05-13 15:40:00,
2013-05-13 10:45:00,58.3,24.5,30.02,SSE,158,17.0,18.0,27,0.00,,CLR,0.00,VWS V14.01,2013-05-13 15:45:00,
2013-05-13 10:50:00,58.9,25.0,30.02,SE,145,17.0,19.0,27,0.00,,CLR,0.00,VWS V14.01,2013-05-13 15:50:00,
2013-05-13 10:55:00,59.0,25.1,30.02,SE,141,17.0,19.0,27,0.00,,CLR,0.00,VWS V14.01,2013-05-13 15:55:00,
2013-05-13 11:00:00,55.9,22.4,30.05,South,172,15.0,19.0,27,0.00,,,0.00,VWS V15.00,2013-05-13 16:00:00,
2013-05-13 11:01:00,59.5,23.7,30.01,South,178,17.0,20.0,25,0.00,,CLR,0.00,VWS V14.01,2013-05-13 16:01:00,
2013-05-13 11:06:00,59.3,24.4,30.01,SE,142,13.0,22.0,26,0.00,,CLR,0.00,VWS V14.01,2013-05-13 16:06:00,
2013-05-13 11:11:00,59.3,22.5,30.01,SSE,167,12.0,22.0,24,0.00,,CLR,0.00,VWS V14.01,2013-05-13 16:11:00,
2013-05-13 11:15:00,57.2,22.6,30.04,SSE,154,7.0,18.0,26,0.00,,,0.00,VWS V15.00,2013-05-13 16:15:00,
2013-05-13 11:16:00,59.3,23.5,30.01,SSE,151,10.0,12.0,25,0.00,,CLR,0.00,VWS V14.01,2013-05-13 16:16:00,
2013-05-13 11:21:00,59.6,23.8,30.01,South,170,17.0,20.0,25,0.00,,CLR,0.00,VWS V14.01,2013-05-13 16:21:00,
2013-05-13 11:26:00,60.2,25.2,30.01,SSE,160,16.0,21.0,26,0.00,,CLR,0.00,VWS V14.01,2013-05-13 16:26:00,
2013-05-13 11:30:00,57.3,22.7,30.03,South,180,12.0,21.0,26,0.00,,,0.00,VWS V15.00,2013-05-13 16:30:00,
2013-05-13 11:31:00,59.9,23.0,30.00,SSE,158,16.0,19.0,24,0.00,,CLR,0.00,VWS V14.01,2013-05-13 16:31:00,
2013-05-13 11:36:00,60.1,23.2,30.00,SSE,161,13.0,19.0,24,0.00,,CLR,0.00,VWS V14.01,2013-05-13 16:36:00,
2013-05-13 11:41:00,60.2,24.3,30.00,SE,142,14.0,21.0,25,0.00,,CLR,0.00,VWS V14.01,2013-05-13 16:41:00,
2013-05-13 11:45:00,58.1,23.4,30.02,SSE,154,9.0,21.0,26,0.00,,,0.00,VWS V15.00,2013-05-13 16:45:00,
2013-05-13 11:46:00,59.5,23.7,29.99,SSE,152,17.0,21.0,25,0.00,,CLR,0.00,VWS V14.01,2013-05-13 16:46:00,
2013-05-13 11:51:00,59.0,23.2,29.99,SE,142,21.0,22.0,25,0.00,,CLR,0.00,VWS V14.01,2013-05-13 16:51:00,
2013-05-13 11:56:00,59.3,23.5,29.99,South,182,10.0,22.0,25,0.00,,CLR,0.00,VWS V14.01,2013-05-13 16:56:00,
2013-05-13 12:00:00,59.3,23.5,30.01,SSE,153,15.0,19.0,25,0.00,,,0.00,VWS V15.00,2013-05-13 17:00:00,
2013-05-13 12:01:00,59.9,25.0,29.98,SSE,157,13.0,21.0,26,0.00,,BKN110,0.00,VWS V14.01,2013-05-13 17:01:00,
2013-05-13 12:06:00,59.8,23.9,29.98,South,169,16.0,23.0,25,0.00,,BKN110,0.00,VWS V14.01,2013-05-13 17:06:00,
2013-05-13 12:11:00,59.9,24.0,29.98,SSE,152,18.0,23.0,25,0.00,,BKN110,0.00,VWS V14.01,2013-05-13 17:11:00,
2013-05-13 12:15:00,59.3,24.4,30.01,SE,145,12.0,22.0,26,0.00,,,0.00,VWS V15.00,2013-05-13 17:15:00,
2013-05-13 12:16:00,59.8,23.0,29.98,South,185,13.0,23.0,24,0.00,,BKN110,0.00,VWS V14.01,2013-05-13 17:16:00,
2013-05-13 12:21:00,60.2,23.3,29.98,South,173,13.0,23.0,24,0.00,,BKN110,0.00,VWS V14.01,2013-05-13 17:21:00,
2013-05-13 12:26:00,60.1,24.2,29.98,SSE,168,15.0,23.0,25,0.00,,BKN110,0.00,VWS V14.01,2013-05-13 17:26:00,
2013-05-13 12:30:00,60.1,24.2,30.00,South,174,14.0,21.0,25,0.00,,,0.00,VWS V15.00,2013-05-13 17:30:00,
2013-05-13 12:31:00,59.3,24.4,29.97,South,169,15.0,18.0,26,0.00,,BKN110,0.00,VWS V14.01,2013-05-13 17:31:00,
2013-05-13 12:36:00,59.0,28.4,29.97,SSW,205,14.0,18.0,31,0.00,,BKN110,0.00,VWS V14.01,2013-05-13 17:36:00,
2013-05-13 12:41:00,58.0,31.9,29.97,South,188,17.0,18.0,37,0.00,,OVC090,0.00,VWS V14.01,2013-05-13 17:41:00,
2013-05-13 12:45:00,59.8,23.9,29.99,SSE,162,19.0,21.0,25,0.00,,,0.00,VWS V15.00,2013-05-13 17:45:00,
2013-05-13 12:46:00,57.2,31.2,29.97,SSW,197,17.0,18.0,37,0.00,,OVC090,0.00,VWS V14.01,2013-05-13 17:46:00,
2013-05-13 12:51:00,57.2,32.5,29.97,South,184,17.0,21.0,39,0.00,,OVC090,0.00,VWS V14.01,2013-05-13 17:51:00,
2013-05-13 12:56:00,57.3,27.0,29.97,South,185,10.0,21.0,31,0.00,,OVC090,0.00,VWS V14.01,2013-05-13 17:56:00,
2013-05-13 13:00:00,59.8,23.9,29.98,SE,144,17.0,22.0,25,0.00,,,0.00,VWS V15.00,2013-05-13 18:00:00,
2013-05-13 13:01:00,57.6,27.2,29.96,South,175,13.0,17.0,31,0.00,,OVC065,0.00,VWS V14.01,2013-05-13 18:01:00,
2013-05-13 13:06:00,57.8,27.4,29.96,SSW,213,15.0,19.0,31,0.00,,OVC065,0.00,VWS V14.01,2013-05-13 18:06:00,
2013-05-13 13:11:00,58.1,27.6,29.96,South,191,15.0,19.0,31,0.00,,OVC065,0.00,VWS V14.01,2013-05-13 18:11:00,
2013-05-13 13:15:00,59.8,23.0,29.98,SSE,166,22.0,23.0,24,0.00,,,0.00,VWS V15.00,2013-05-13 18:15:00,
2013-05-13 13:16:00,58.3,28.6,29.97,SSE,168,12.0,14.0,32,0.00,,OVC065,0.00,VWS V14.01,2013-05-13 18:16:00,
2013-05-13 13:21:00,58.3,29.3,29.97,SSE,167,17.0,17.0,33,0.00,,OVC065,0.00,VWS V14.01,2013-05-13 18:21:00,
2013-05-13 13:27:00,57.3,32.6,29.97,South,170,20.0,20.0,39,0.00,,OVC065,0.00,VWS V14.01,2013-05-13 18:27:00,
2013-05-13 13:30:00,59.6,25.6,29.97,SSE,161,18.0,23.0,27,0.00,,,0.00,VWS V15.00,2013-05-13 18:30:00,
2013-05-13 13:32:00,56.0,34.4,29.95,SSE,167,18.0,21.0,44,0.00,,OVC065,0.00,VWS V14.01,2013-05-13 18:32:00,
2013-05-13 13:37:00,54.7,36.9,29.95,South,170,13.0,21.0,51,0.00,,OVC065,0.00,VWS V14.01,2013-05-13 18:37:00,
2013-05-13 13:42:00,53.3,40.6,29.95,South,184,10.0,21.0,62,0.01,,CLR,0.01,VWS V14.01,2013-05-13 18:42:00,
2013-05-13 13:45:00,57.3,29.9,29.97,South,170,15.0,19.0,35,0.00,,,0.00,VWS V15.00,2013-05-13 18:45:00,
2013-05-13 13:47:00,53.1,39.6,29.97,South,175,10.0,14.0,60,0.01,,CLR,0.01,VWS V14.01,2013-05-13 18:47:00,
2013-05-13 13:52:00,53.5,40.8,29.97,SSE,148,14.0,15.0,62,0.01,,CLR,0.01,VWS V14.01,2013-05-13 18:52:00,
2013-05-13 13:57:00,54.2,39.3,29.97,SE,145,13.0,16.0,57,0.01,,CLR,0.01,VWS V14.01,2013-05-13 18:57:00,
2013-05-13 14:00:00,57.5,27.1,29.96,South,185,16.0,21.0,31,0.00,,,0.00,VWS V15.00,2013-05-13 19:00:00,
2013-05-13 14:02:00,55.0,39.6,29.94,SSE,148,12.0,15.0,56,0.01,,OVC080,0.01,VWS V14.01,2013-05-13 19:02:00,
2013-05-13 14:07:00,55.3,39.9,29.94,SSE,157,12.0,16.0,56,0.01,,OVC080,0.01,VWS V14.01,2013-05-13 19:07:00,
2013-05-13 14:12:00,55.6,39.7,29.94,SE,146,11.0,16.0,55,0.01,,OVC080,0.01,VWS V14.01,2013-05-13 19:12:00,
2013-05-13 14:15:00,58.3,27.0,29.97,SSE,168,14.0,19.0,30,0.00,,,0.00,VWS V15.00,2013-05-13 19:15:00,
2013-05-13 14:17:00,55.7,38.8,29.93,SSE,148,13.0,14.0,53,0.01,,OVC080,0.01,VWS V14.01,2013-05-13 19:17:00,
2013-05-13 14:22:00,55.9,39.5,29.93,SSE,149,14.0,14.0,54,0.01,,OVC080,0.01,VWS V14.01,2013-05-13 19:22:00,
2013-05-13 14:27:00,56.0,39.6,29.93,SE,132,10.0,20.0,54,0.01,,OVC080,0.01,VWS V14.01,2013-05-13 19:27:00,
2013-05-13 14:30:00,56.6,33.8,29.95,SSE,167,15.0,22.0,42,0.00,,,0.00,VWS V15.00,2013-05-13 19:30:00,
2013-05-13 14:32:00,56.2,38.8,29.92,SE,138,14.0,18.0,52,0.01,,OVC080,0.01,VWS V14.01,2013-05-13 19:32:00,
2013-05-13 14:37:00,56.2,37.3,29.92,SE,140,17.0,20.0,49,0.01,,OVC080,0.01,VWS V14.01,2013-05-13 19:37:00,
2013-05-13 14:42:00,56.3,37.9,29.92,SE,138,12.0,20.0,50,0.01,,OVC110,0.01,VWS V14.01,2013-05-13 19:42:00,
2013-05-13 14:45:00,52.9,39.4,29.97,South,180,10.0,21.0,60,0.01,,,0.01,VWS V15.00,2013-05-13 19:45:00,
2013-05-13 14:47:00,56.6,38.2,29.90,SSE,147,16.0,18.0,50,0.00,,OVC110,0.01,VWS V14.01,2013-05-13 19:47:00,
2013-05-13 14:52:00,56.9,38.0,29.90,SSE,156,16.0,21.0,49,0.00,,OVC110,0.01,VWS V14.01,2013-05-13 19:52:00,
2013-05-13 14:57:00,57.2,38.2,29.90,SE,133,16.0,21.0,49,0.00,,OVC110,0.01,VWS V14.01,2013-05-13 19:57:00,
2013-05-13 15:00:00,54.5,39.1,29.94,SE,141,13.0,16.0,56,0.01,,,0.01,VWS V15.00,2013-05-13 20:00:00,
2013-05-13 15:02:00,57.3,37.8,29.88,SE,146,14.0,16.0,48,0.00,,OVC120,0.01,VWS V14.01,2013-05-13 20:02:00,
2013-05-13 15:07:00,57.5,38.5,29.88,SE,142,17.0,20.0,49,0.00,,OVC120,0.01,VWS V14.01,2013-05-13 20:07:00,
2013-05-13 15:12:00,57.8,37.7,29.88,SSE,149,19.0,20.0,47,0.00,,OVC120,0.01,VWS V14.01,2013-05-13 20:12:00,
2013-05-13 15:15:00,55.6,39.7,29.93,SE,144,12.0,16.0,55,0.01,,,0.01,VWS V15.00,2013-05-13 20:15:00,
2013-05-13 15:17:00,57.8,36.6,29.88,SSE,158,13.0,21.0,45,0.00,,OVC120,0.01,VWS V14.01,2013-05-13 20:17:00,
2013-05-13 15:22:00,58.0,37.9,29.88,SE,142,13.0,22.0,47,0.00,,OVC120,0.01,VWS V14.01,2013-05-13 20:22:00,
2013-05-13 15:27:00,58.4,37.7,29.88,SE,142,15.0,22.0,46,0.00,,OVC120,0.01,VWS V14.01,2013-05-13 20:27:00,
2013-05-13 15:30:00,56.2,38.8,29.92,SSE,148,12.0,20.0,52,0.01,,,0.01,VWS V15.00,2013-05-13 20:30:00,
2013-05-13 15:32:00,59.3,38.0,29.86,SSE,153,22.0,22.0,45,0.00,,OVC120,0.01,VWS V14.01,2013-05-13 20:32:00,
2013-05-13 15:37:00,60.1,38.1,29.86,South,169,17.0,22.0,44,0.00,,OVC120,0.01,VWS V14.01,2013-05-13 20:37:00,
2013-05-13 15:42:00,60.4,39.0,29.86,SE,146,17.0,22.0,45,0.00,,OVC120,0.01,VWS V14.01,2013-05-13 20:42:00,
2013-05-13 15:45:00,56.3,36.9,29.90,SSE,148,15.0,20.0,48,0.01,,,0.01,VWS V15.00,2013-05-13 20:45:00,
2013-05-13 15:47:00,61.0,39.0,29.85,SSE,156,20.0,23.0,44,0.00,,OVC120,0.01,VWS V14.01,2013-05-13 20:47:00,
2013-05-13 15:52:00,61.6,38.9,29.85,SE,146,20.0,26.0,43,0.00,,OVC120,0.01,VWS V14.01,2013-05-13 20:52:00,
2013-05-13 15:57:00,62.4,37.1,29.85,SSE,160,24.0,28.0,39,0.00,,OVC120,0.01,VWS V14.01,2013-05-13 20:57:00,
2013-05-13 16:00:00,57.2,37.7,29.88,SE,146,13.0,21.0,48,0.00,,,0.01,VWS V15.00,2013-05-13 21:00:00,
2013-05-13 16:02:00,61.8,36.0,29.83,SSE,161,26.0,30.0,38,0.00,,SCT120,0.01,VWS V14.01,2013-05-13 21:02:00,
2013-05-13 16:07:00,61.8,37.2,29.83,South,173,19.0,31.0,40,0.00,,SCT120,0.01,VWS V14.01,2013-05-13 21:07:00,
2013-05-13 16:12:00,62.9,36.2,29.83,SSE,166,22.0,31.0,37,0.00,,SCT120,0.01,VWS V14.01,2013-05-13 21:12:00,
2013-05-13 16:15:00,57.8,37.2,29.88,SSE,150,10.0,20.0,46,0.00,,,0.01,VWS V15.00,2013-05-13 21:15:00,
2013-05-13 16:18:00,63.9,35.0,29.82,SSE,168,28.0,29.0,34,0.00,,SCT120,0.01,VWS V14.01,2013-05-13 21:18:00,
2013-05-13 16:23:00,63.7,32.5,29.82,South,169,32.0,32.0,31,0.00,,SCT120,0.01,VWS V14.01,2013-05-13 21:23:00,
2013-05-13 16:28:00,62.6,34.6,29.82,South,174,24.0,32.0,35,0.00,,SCT120,0.01,VWS V14.01,2013-05-13 21:28:00,
2013-05-13 16:30:00,58.7,37.4,29.86,SE,133,15.0,22.0,45,0.00,,,0.01,VWS V15.00,2013-05-13 21:30:00,
2013-05-13 16:33:00,63.1,35.0,29.82,South,180,16.0,25.0,35,0.00,,SCT120,0.01,VWS V14.01,2013-05-13 21:33:00,
2013-05-13 16:38:00,64.2,35.3,29.82,South,173,17.0,27.0,34,0.00,,SCT120,0.01,VWS V14.01,2013-05-13 21:38:00,
2013-05-13 16:43:00,64.7,35.7,29.82,SSE,160,21.0,27.0,34,0.00,,CLR,0.01,VWS V14.01,2013-05-13 21:43:00,
2013-05-13 16:45:00,60.7,37.5,29.85,SSE,147,19.0,23.0,42,0.00,,,0.01,VWS V15.00,2013-05-13 21:45:00,
2013-05-13 16:48:00,64.3,34.6,29.82,South,182,21.0,29.0,33,0.00,,CLR,0.01,VWS V14.01,2013-05-13 21:48:00,
2013-05-13 16:53:00,64.5,34.8,29.82,South,171,18.0,29.0,33,0.00,,CLR,0.01,VWS V14.01,2013-05-13 21:53:00,
2013-05-13 16:58:00,64.8,34.3,29.82,South,185,19.0,29.0,32,0.00,,CLR,0.01,VWS V14.01,2013-05-13 21:58:00,
2013-05-13 17:00:00,62.3,35.7,29.83,SSE,149,25.0,32.0,37,0.00,,,0.01,VWS V15.00,2013-05-13 22:00:00,
2013-05-13 17:03:00,65.0,34.5,29.82,SSE,165,15.0,24.0,32,0.00,,OVC120,0.01,VWS V14.01,2013-05-13 22:03:00,
2013-05-13 17:08:00,65.8,36.7,29.82,South,176,20.0,24.0,34,0.00,,OVC120,0.01,VWS V14.01,2013-05-13 22:08:00,
2013-05-13 17:13:00,64.8,35.0,29.82,South,171,23.0,26.0,33,0.00,,CLR,0.01,VWS V14.01,2013-05-13 22:13:00,
2013-05-13 17:15:00,63.2,34.4,29.82,SSE,159,29.0,31.0,34,0.00,,,0.01,VWS V15.00,2013-05-13 22:15:00,
2013-05-13 17:18:00,64.7,35.0,29.81,South,177,20.0,26.0,33,0.00,,CLR,0.01,VWS V14.01,2013-05-13 22:18:00,
2013-05-13 17:23:00,65.0,35.2,29.81,SSE,166,21.0,31.0,33,0.00,,CLR,0.01,VWS V14.01,2013-05-13 22:23:00,
2013-05-13 17:28:00,66.0,35.3,29.81,SSE,167,18.0,31.0,32,0.00,,CLR,0.01,VWS V14.01,2013-05-13 22:28:00,
2013-05-13 17:30:00,62.4,34.4,29.82,South,191,16.0,32.0,35,0.00,,,0.01,VWS V15.00,2013-05-13 22:30:00,
2013-05-13 17:33:00,65.6,35.8,29.81,SSE,151,19.0,25.0,33,0.00,,CLR,0.01,VWS V14.01,2013-05-13 22:33:00,
2013-05-13 17:38:00,65.6,37.2,29.81,SSE,168,23.0,26.0,35,0.00,,CLR,0.01,VWS V14.01,2013-05-13 22:38:00,
2013-05-13 17:43:00,65.6,35.0,29.81,SSE,164,21.0,26.0,32,0.00,,SCT120,0.01,VWS V14.01,2013-05-13 22:43:00,
2013-05-13 17:45:00,64.5,35.5,29.82,SE,145,21.0,28.0,34,0.00,,,0.01,VWS V15.00,2013-05-13 22:45:00,
2013-05-13 17:48:00,65.5,34.9,29.79,SE,143,22.0,29.0,32,0.00,,SCT120,0.01,VWS V14.01,2013-05-13 22:48:00,
2013-05-13 17:53:00,65.0,34.5,29.79,SE,144,23.0,29.0,32,0.00,,SCT120,0.01,VWS V14.01,2013-05-13 22:53:00,
2013-05-13 17:58:00,65.0,35.2,29.79,SE,146,27.0,29.0,33,0.00,,SCT120,0.01,VWS V14.01,2013-05-13 22:58:00,
2013-05-13 18:00:00,64.8,34.3,29.82,South,180,20.0,29.0,32,0.00,,,0.01,VWS V15.00,2013-05-13 23:00:00,
2013-05-13 18:03:00,65.0,35.2,29.78,SSE,156,15.0,26.0,33,0.00,,CLR,0.01,VWS V14.01,2013-05-13 23:03:00,
2013-05-13 18:08:00,65.2,35.4,29.78,SSE,163,15.0,26.0,33,0.00,,CLR,0.01,VWS V14.01,2013-05-13 23:08:00,
2013-05-13 18:13:00,65.0,35.2,29.78,SSE,153,18.0,26.0,33,0.00,,CLR,0.01,VWS V14.01,2013-05-13 23:13:00,
2013-05-13 18:15:00,64.5,34.0,29.81,SSE,155,19.0,26.0,32,0.00,,,0.01,VWS V15.00,2013-05-13 23:15:00,
2013-05-13 18:18:00,64.8,35.8,29.77,SSE,157,22.0,28.0,34,0.00,,CLR,0.01,VWS V14.01,2013-05-13 23:18:00,
2013-05-13 18:23:00,64.5,35.5,29.77,SE,130,23.0,31.0,34,0.00,,CLR,0.01,VWS V14.01,2013-05-13 23:23:00,
2013-05-13 18:28:00,64.3,36.1,29.77,SSE,150,17.0,31.0,35,0.00,,CLR,0.01,VWS V14.01,2013-05-13 23:28:00,
2013-05-13 18:30:00,66.0,34.5,29.81,SSE,151,20.0,31.0,31,0.00,,,0.01,VWS V15.00,2013-05-13 23:30:00,
2013-05-13 18:33:00,64.3,36.1,29.76,SE,133,20.0,26.0,35,0.00,,CLR,0.01,VWS V14.01,2013-05-13 23:33:00,
2013-05-13 18:38:00,64.2,36.0,29.76,SSE,155,20.0,26.0,35,0.00,,CLR,0.01,VWS V14.01,2013-05-13 23:38:00,
2013-05-13 18:43:00,64.0,35.8,29.76,SE,135,20.0,26.0,35,0.00,,CLR,0.01,VWS V14.01,2013-05-13 23:43:00,
2013-05-13 18:45:00,65.6,34.2,29.79,SSE,150,16.0,26.0,31,0.00,,,0.01,VWS V15.00,2013-05-13 23:45:00,
2013-05-13 18:48:00,63.7,37.0,29.76,SSE,149,18.0,25.0,37,0.00,,CLR,0.01,VWS V14.01,2013-05-13 23:48:00,
2013-05-13 18:53:00,63.5,36.1,29.76,SE,142,11.0,25.0,36,0.00,,CLR,0.01,VWS V14.01,2013-05-13 23:53:00,
2013-05-13 18:58:00,63.4,36.7,29.76,SE,144,16.0,25.0,37,0.00,,CLR,0.01,VWS V14.01,2013-05-13 23:58:00,
2013-05-13 19:00:00,65.0,34.5,29.78,SE,139,19.0,29.0,32,0.00,,,0.01,VWS V15.00,2013-05-14 00:00:00,
2013-05-13 19:03:00,63.1,35.7,29.75,SSE,165,23.0,25.0,36,0.00,,CLR,0.01,VWS V14.01,2013-05-14 00:03:00,
2013-05-13 19:09:00,62.7,36.8,29.75,SSE,148,20.0,25.0,38,0.00,,CLR,0.01,VWS V14.01,2013-05-14 00:09:00,
2013-05-13 19:14:00,62.4,36.5,29.74,SSE,156,17.0,25.0,38,0.00,,CLR,0.01,VWS V14.01,2013-05-14 00:14:00,
2013-05-13 19:15:00,64.8,36.5,29.77,SSE,147,18.0,26.0,35,0.00,,,0.01,VWS V15.00,2013-05-14 00:15:00,
2013-05-13 19:19:00,62.3,36.4,29.74,SE,143,20.0,24.0,38,0.00,,CLR,0.01,VWS V14.01,2013-05-14 00:19:00,
2013-05-13 19:24:00,62.3,36.4,29.74,SSE,153,13.0,24.0,38,0.00,,CLR,0.01,VWS V14.01,2013-05-14 00:24:00,
2013-05-13 19:29:00,61.8,36.6,29.73,SE,137,18.0,24.0,39,0.00,,CLR,0.01,VWS V14.01,2013-05-14 00:29:00,
2013-05-13 19:30:00,64.3,36.1,29.76,SE,146,14.0,31.0,35,0.00,,,0.01,VWS V15.00,2013-05-14 00:30:00,
2013-05-13 19:34:00,61.6,37.1,29.73,SE,143,12.0,23.0,40,0.00,,CLR,0.01,VWS V14.01,2013-05-14 00:34:00,
2013-05-13 19:39:00,61.5,37.0,29.73,SE,138,16.0,23.0,40,0.00,,CLR,0.01,VWS V14.01,2013-05-14 00:39:00,
2013-05-13 19:44:00,61.5,37.6,29.71,SE,144,16.0,23.0,41,0.00,,CLR,0.01,VWS V14.01,2013-05-14 00:44:00,
2013-05-13 19:45:00,63.9,36.5,29.76,SE,142,25.0,26.0,36,0.00,,,0.01,VWS V15.00,2013-05-14 00:45:00,
2013-05-13 19:49:00,61.5,37.6,29.71,SSE,157,17.0,22.0,41,0.00,,CLR,0.01,VWS V14.01,2013-05-14 00:49:00,
2013-05-13 19:54:00,61.5,37.6,29.71,SE,138,13.0,22.0,41,0.00,,CLR,0.01,VWS V14.01,2013-05-14 00:54:00,
2013-05-13 19:59:00,61.3,37.4,29.71,SE,146,13.0,22.0,41,0.00,,CLR,0.01,VWS V14.01,2013-05-14 00:59:00,
2013-05-13 20:00:00,63.4,36.0,29.75,SE,135,17.0,25.0,36,0.00,,,0.01,VWS V15.00,2013-05-14 01:00:00,
2013-05-13 20:04:00,61.2,38.0,29.71,SSE,149,13.0,16.0,42,0.00,,CLR,0.01,VWS V14.01,2013-05-14 01:04:00,
2013-05-13 20:09:00,61.0,37.8,29.71,SSE,151,21.0,21.0,42,0.00,,CLR,0.01,VWS V14.01,2013-05-14 01:09:00,
2013-05-13 20:14:00,60.9,37.7,29.70,SE,142,15.0,21.0,42,0.00,,CLR,0.01,VWS V14.01,2013-05-14 01:14:00,
2013-05-13 20:15:00,62.4,36.5,29.74,SE,143,14.0,25.0,38,0.00,,,0.01,VWS V15.00,2013-05-14 01:15:00,
2013-05-13 20:19:00,60.5,37.9,29.70,SSE,151,14.0,23.0,43,0.00,,CLR,0.01,VWS V14.01,2013-05-14 01:19:00,
2013-05-13 20:24:00,60.2,37.6,29.70,SSE,147,17.0,23.0,43,0.00,,CLR,0.01,VWS V14.01,2013-05-14 01:24:00,
2013-05-13 20:29:00,60.4,37.8,29.69,SSE,148,16.0,23.0,43,0.00,,CLR,0.01,VWS V14.01,2013-05-14 01:29:00,
2013-05-13 20:30:00,61.8,36.6,29.73,SSE,152,19.0,24.0,39,0.00,,,0.01,VWS V15.00,2013-05-14 01:30:00,
2013-05-13 20:34:00,60.2,38.2,29.69,SE,144,12.0,18.0,44,0.00,,CLR,0.01,VWS V14.01,2013-05-14 01:34:00,
2013-05-13 20:39:00,60.1,38.1,29.69,SSE,149,14.0,18.0,44,0.00,,CLR,0.01,VWS V14.01,2013-05-14 01:39:00,
2013-05-13 20:44:00,60.1,38.1,29.68,SE,141,16.0,19.0,44,0.00,,CLR,0.01,VWS V14.01,2013-05-14 01:44:00,
2013-05-13 20:45:00,61.5,37.0,29.71,SE,142,17.0,23.0,40,0.00,,,0.01,VWS V15.00,2013-05-14 01:45:00,
2013-05-13 20:49:00,60.1,38.1,29.68,SE,140,15.0,19.0,44,0.00,,CLR,0.01,VWS V14.01,2013-05-14 01:49:00,
2013-05-13 20:54:00,60.2,38.2,29.68,SSE,160,11.0,19.0,44,0.00,,CLR,0.01,VWS V14.01,2013-05-14 01:54:00,
2013-05-13 20:59:00,59.8,38.4,29.68,SE,143,8.0,19.0,45,0.00,,CLR,0.01,VWS V14.01,2013-05-14 01:59:00,
2013-05-13 21:00:00,61.2,37.3,29.71,SE,143,13.0,22.0,41,0.00,,,0.01,VWS V15.00,2013-05-14 02:00:00,
2013-05-13 21:04:00,59.5,38.2,29.68,SE,143,15.0,15.0,45,0.00,,CLR,0.01,VWS V14.01,2013-05-14 02:04:00,
2013-05-13 21:09:00,59.5,38.2,29.68,SSE,150,11.0,18.0,45,0.00,,CLR,0.01,VWS V14.01,2013-05-14 02:09:00,
2013-05-13 21:14:00,59.3,38.0,29.67,SSE,153,11.0,18.0,45,0.00,,CLR,0.01,VWS V14.01,2013-05-14 02:14:00,
2013-05-13 21:15:00,60.9,37.7,29.70,SSE,153,14.0,21.0,42,0.00,,,0.01,VWS V15.00,2013-05-14 02:15:00,
2013-05-13 21:19:00,59.3,38.0,29.67,SSE,149,6.0,14.0,45,0.00,,CLR,0.01,VWS V14.01,2013-05-14 02:19:00,
2013-05-13 21:25:00,59.0,37.7,29.67,South,178,14.0,14.0,45,0.00,,CLR,0.01,VWS V14.01,2013-05-14 02:25:00,
2013-05-13 21:30:00,58.7,38.0,29.67,SE,144,9.0,9.0,46,0.00,,CLR,0.01,VWS V14.01,2013-05-14 02:30:00,
2013-05-13 21:35:00,58.7,38.0,29.67,SSE,158,4.0,11.0,46,0.00,,CLR,0.01,VWS V14.01,2013-05-14 02:35:00,
2013-05-13 21:40:00,58.7,38.0,29.67,SSE,153,11.0,14.0,46,0.00,,BKN120,0.01,VWS V14.01,2013-05-14 02:40:00,
2013-05-13 21:45:00,58.9,38.2,29.66,SSE,150,9.0,14.0,46,0.00,,BKN120,0.01,VWS V14.01,2013-05-14 02:45:00,
2013-05-13 21:50:00,58.9,38.2,29.66,SSE,158,11.0,19.0,46,0.00,,BKN120,0.01,VWS V14.01,2013-05-14 02:50:00,
2013-05-13 21:55:00,59.0,38.3,29.66,SE,142,6.0,19.0,46,0.00,,BKN120,0.01,VWS V14.01,2013-05-14 02:55:00,
2013-05-13 22:00:00,58.9,38.2,29.66,SSE,161,10.0,14.0,46,0.00,,BKN120,0.01,VWS V14.01,2013-05-14 03:00:00,
2013-05-13 22:05:00,59.0,38.3,29.66,SE,146,11.0,16.0,46,0.00,,SCT120,0.01,VWS V14.01,2013-05-14 03:05:00,
2013-05-13 22:10:00,59.2,38.5,29.66,SE,132,13.0,18.0,46,0.00,,SCT120,0.01,VWS V14.01,2013-05-14 03:10:00,
2013-05-13 22:15:00,59.2,38.5,29.65,SSE,152,15.0,15.0,46,0.00,,SCT120,0.01,VWS V14.01,2013-05-14 03:15:00,
2013-05-13 22:20:00,59.0,38.8,29.65,SE,142,12.0,17.0,47,0.00,,SCT120,0.01,VWS V14.01,2013-05-14 03:20:00,
2013-05-13 22:25:00,59.2,39.0,29.65,SSE,161,16.0,18.0,47,0.00,,SCT120,0.01,VWS V14.01,2013-05-14 03:25:00,
2013-05-13 22:30:00,59.0,38.8,29.65,SE,144,17.0,17.0,47,0.00,,SCT120,0.01,VWS V14.01,2013-05-14 03:30:00,
2013-05-13 22:35:00,58.9,39.3,29.65,SSE,148,19.0,23.0,48,0.00,,SCT120,0.01,VWS V14.01,2013-05-14 03:35:00,
2013-05-13 22:40:00,59.2,39.5,29.65,SSE,151,19.0,23.0,48,0.00,,SCT110,0.01,VWS V14.01,2013-05-14 03:40:00,
2013-05-13 22:45:00,58.9,39.3,29.64,SSE,151,13.0,18.0,48,0.00,,SCT110,0.01,VWS V14.01,2013-05-14 03:45:00,
2013-05-13 22:50:00,59.2,39.5,29.64,SSE,151,22.0,22.0,48,0.00,,SCT110,0.01,VWS V14.01,2013-05-14 03:50:00,
2013-05-13 22:55:00,59.3,39.6,29.64,SSE,153,18.0,22.0,48,0.00,,SCT110,0.01,VWS V14.01,2013-05-14 03:55:00,
2013-05-13 23:00:00,59.3,39.6,29.63,SSE,155,18.0,23.0,48,0.00,,SCT110,0.01,VWS V14.01,2013-05-14 04:00:00,
2013-05-13 23:01:00,59.3,40.2,29.63,SE,146,20.0,23.0,49,0.00,,SCT110,0.01,VWS V14.01,2013-05-14 04:01:00,
2013-05-13 23:02:00,59.5,39.8,29.63,South,170,16.0,26.0,48,0.00,,SCT110,0.01,VWS V14.01,2013-05-14 04:02:00,
2013-05-13 23:04:00,59.5,39.8,29.63,SSE,165,14.0,26.0,48,0.00,,SCT110,0.01,VWS V14.01,2013-05-14 04:04:00,
2013-05-13 23:09:00,59.2,40.6,29.63,SSE,152,17.0,26.0,50,0.00,,SCT110,0.01,VWS V14.01,2013-05-14 04:09:00,
2013-05-13 23:14:00,59.5,40.3,29.62,SE,144,15.0,26.0,49,0.00,,SCT110,0.01,VWS V14.01,2013-05-14 04:14:00,
2013-05-13 23:15:00,59.2,38.5,29.65,SSE,153,14.0,23.0,46,0.00,,,0.01,VWS V15.00,2013-05-14 04:15:00,
2013-05-13 23:19:00,59.6,40.4,29.62,South,169,14.0,19.0,49,0.00,,SCT110,0.01,VWS V14.01,2013-05-14 04:19:00,
2013-05-13 23:24:00,59.5,40.3,29.62,SSE,159,11.0,20.0,49,0.00,,SCT110,0.01,VWS V14.01,2013-05-14 04:24:00,
2013-05-13 23:29:00,59.5,40.9,29.62,SE,138,17.0,23.0,50,0.00,,SCT110,0.01,VWS V14.01,2013-05-14 04:29:00,
2013-05-13 23:30:00,59.0,38.8,29.65,SSE,151,11.0,20.0,47,0.00,,,0.01,VWS V15.00,2013-05-14 04:30:00,
2013-05-13 23:34:00,59.3,40.7,29.62,SE,139,17.0,22.0,50,0.00,,SCT110,0.01,VWS V14.01,2013-05-14 04:34:00,
2013-05-13 23:39:00,59.3,41.2,29.62,SE,132,17.0,22.0,51,0.00,,BKN110,0.01,VWS V14.01,2013-05-14 04:39:00,
2013-05-13 23:45:00,59.3,41.2,29.62,SE,137,10.0,13.0,51,0.00,,BKN110,0.01,VWS V14.01,2013-05-14 04:45:00,
2013-05-13 23:50:00,59.2,41.6,29.62,SSE,149,9.0,20.0,52,0.00,,BKN110,0.01,VWS V14.01,2013-05-14 04:50:00,
2013-05-13 23:56:00,59.2,41.6,29.62,SSE,167,12.0,20.0,52,0.00,,BKN110,0.01,VWS V14.01,2013-05-14 04:56:00,